This is the latest recevied weather packets stored in our database for station/object DC4AT. If no packets are shown the sender has not sent any weather packets the latest 10 day(s).
| Time | Temp. | Humidity | Pressure | Rain* | Wind** | Luminosity | Snow |
|---|---|---|---|---|---|---|---|
| 1787506669 | 17.22° C | 61% | 1022.8 hPa | 0 mm | - | 33 W/m² | - |
| 1787506069 | 17.78° C | 60% | 1022.8 hPa | 0 mm | - | 113 W/m² | - |
| 1787505469 | 17.78° C | 58% | 1022.9 hPa | 0 mm | - | 54 W/m² | - |
| 1787504869 | 18.33° C | 57% | 1022.8 hPa | 0 mm | - | 151 W/m² | - |
| 1787504269 | 18.33° C | 55% | 1022.9 hPa | 0 mm | - | 186 W/m² | - |
| 1787503669 | 18.33° C | 56% | 1022.8 hPa | 0 mm | - | 193 W/m² | - |
| 1787503069 | 18.33° C | 56% | 1022.8 hPa | 0 mm | - | 204 W/m² | - |
| 1787502469 | 18.33° C | 54% | 1022.8 hPa | 0 mm | - | 207 W/m² | - |
| 1787501870 | 18.33° C | 55% | 1022.9 hPa | 0 mm | - | 255 W/m² | - |
| 1787501270 | 18.33° C | 55% | 1022.9 hPa | 0 mm | - | 274 W/m² | - |
| 1787500670 | 18.33° C | 54% | 1022.8 hPa | 0 mm | - | 320 W/m² | - |
| 1787500070 | 18.33° C | 56% | 1022.9 hPa | 0 mm | - | 63 W/m² | - |
| 1787499470 | 17.78° C | 59% | 1022.8 hPa | 0 mm | - | 253 W/m² | - |
| 1787498870 | 17.78° C | 56% | 1022.9 hPa | 0 mm | - | 93 W/m² | - |
| 1787498270 | 18.33° C | 54% | 1023 hPa | 0 mm | - | 348 W/m² | - |
| 1787497670 | 18.33° C | 54% | 1023 hPa | 0 mm | - | 497 W/m² | - |
| 1787497070 | 18.33° C | 55% | 1023 hPa | 0 mm | - | 471 W/m² | - |
| 1787496470 | 17.78° C | 57% | 1022.9 hPa | 0 mm | - | 207 W/m² | - |
| 1787495870 | 17.78° C | 57% | 1022.9 hPa | 0 mm | - | 174 W/m² | - |
| 1787495270 | 17.78° C | 54% | 1022.9 hPa | 0 mm | - | 128 W/m² | - |
| 1787494670 | 17.78° C | 53% | 1023 hPa | 0 mm | - | 84 W/m² | - |
| 1787494070 | 18.33° C | 53% | 1023 hPa | 0 mm | - | 165 W/m² | - |
| 1787493470 | 18.33° C | 54% | 1023 hPa | 0 mm | - | 271 W/m² | - |
| 1787492870 | 17.78° C | 57% | 1023 hPa | 0 mm | - | 221 W/m² | - |
| 1787492270 | 17.22° C | 59% | 1023 hPa | 0 mm | - | 186 W/m² | - |
* Rain latest hour (hover to see other rain measurements)
** Current wind speed in m/s (hover to see current wind gust speed)